EW5390 Felton DE US current weather conditions

sailwx.info

Wind from 212

Air temperature 23.3° C
Dewpoint 21.2° C

Last reported at 2020-Jul-06 05:01 UTC.
Time now 2020-Jul-06 06:15 UTC

Location: N 39°02' W 075°31'.
View on Google Maps.

See reports from other nearby stations

  
Tides and Currents Weather Stations Pressure Air Temp Water Temp Dewpoint Dewpoint Depression Visibility Wind Speed Wind Dir Waves Ship Positions
date/time (UTC)wind fromknots sea level pressurealtimeterstation pressurevisibilityair tempwater tempwave heightnotes
2020-Jul-06 05:01 212 23.3
2020-Jul-06 04:56 212 23.3
2020-Jul-06 04:51 212 23.3
2020-Jul-06 04:46 212 23.3
2020-Jul-06 04:41 212 23.3
2020-Jul-06 04:36 212 23.3
2020-Jul-06 04:31 212 23.3
2020-Jul-06 04:26 212 23.3
2020-Jul-06 04:20 212 23.3
2020-Jul-06 04:16 212 23.9
2020-Jul-06 04:11 212 23.9
2020-Jul-06 04:05 212 23.9
2020-Jul-06 04:01 212 23.9
2020-Jul-06 03:55 212 23.9
2020-Jul-06 03:50 212 23.9
2020-Jul-06 03:46 212 23.9
2020-Jul-06 03:41 212 23.9
2020-Jul-06 03:36 212 23.9
2020-Jul-06 03:31 212 23.9
2020-Jul-06 03:25 212 23.9
2020-Jul-06 03:20 212 23.9
2020-Jul-06 03:16 212 23.9
2020-Jul-06 03:11 212 23.9
2020-Jul-06 03:05 212 23.9
2020-Jul-06 03:01 212 23.9
2020-Jul-06 02:55 212 24.4
2020-Jul-06 02:51 212 24.4
2020-Jul-06 02:46 212 24.4
2020-Jul-06 02:40 212 24.4
2020-Jul-06 02:36 212 24.4
2020-Jul-06 02:31 212 24.4
2020-Jul-06 02:25 212 24.4
2020-Jul-06 02:20 212 25.0
2020-Jul-06 02:16 212 25.0
2020-Jul-06 02:10 212 25.0
2020-Jul-06 02:05 212 25.0
2020-Jul-06 02:01 212 25.0
2020-Jul-06 01:50 212 25.0
2020-Jul-06 01:46 212 25.6
2020-Jul-06 01:40 212 25.6
2020-Jul-06 01:36 212 25.6
2020-Jul-06 01:31 212 25.6
2020-Jul-06 01:25 212 25.6
2020-Jul-06 01:20 212 26.1
2020-Jul-06 01:16 212 26.1
2020-Jul-06 01:10 212 26.1
2020-Jul-06 01:05 212 26.1
2020-Jul-06 01:00 212 26.7
2020-Jul-06 00:56 212 26.7
2020-Jul-06 00:50 212 26.7
2020-Jul-06 00:46 212 26.7
2020-Jul-06 00:40 212 27.2
2020-Jul-06 00:35 212 27.2
2020-Jul-06 00:30 212 27.2
2020-Jul-06 00:25 212 27.2
2020-Jul-06 00:20 212 27.8
2020-Jul-06 00:17 212 27.8
2020-Jul-06 00:10 212 27.8
2020-Jul-06 00:05 264 28.3
2020-Jul-06 00:01 264 28.3
2020-Jul-05 23:55 264 28.3
2020-Jul-05 23:50 264 28.3
2020-Jul-05 23:46 309 28.3
2020-Jul-05 23:40 309 28.9
2020-Jul-05 23:35 309 28.9
2020-Jul-05 23:30 322 28.9
2020-Jul-05 23:25 322 28.9
2020-Jul-05 23:20 322 29.4
2020-Jul-05 23:16 322 29.4
2020-Jul-05 23:10 322 30.0
2020-Jul-05 23:05 322 30.0
2020-Jul-05 23:00 322 29.4
2020-Jul-05 22:55 322 29.4
2020-Jul-05 22:50 306 29.4
2020-Jul-05 22:46 168 29.4
2020-Jul-05 22:40 168 28.9
2020-Jul-05 22:35 168 28.9
2020-Jul-05 22:31 168 28.3
2020-Jul-05 22:25 168 28.3
2020-Jul-05 22:20 168 28.3
2020-Jul-05 22:16 168 27.8
2020-Jul-05 22:10 168 27.8
2020-Jul-05 22:05 168 27.8
2020-Jul-05 22:01 168 27.8
2020-Jul-05 21:55 168 27.8
2020-Jul-05 21:50 168 27.8
2020-Jul-05 21:46 168 27.8
2020-Jul-05 21:40 168 28.3
2020-Jul-05 21:35 168 28.3
2020-Jul-05 21:31 168 28.3
2020-Jul-05 21:25 168 28.3
2020-Jul-05 21:20 168 28.3
2020-Jul-05 21:16 302 28.3
2020-Jul-05 21:10 302 28.9
2020-Jul-05 21:05 301 28.9
2020-Jul-05 21:01 302 28.9
2020-Jul-05 20:55 301 28.9
2020-Jul-05 20:50 301 29.4
2020-Jul-05 20:46 301 29.4
2020-Jul-05 20:40 302 29.4
2020-Jul-05 20:35 301 29.4
2020-Jul-05 20:30 302 29.4
2020-Jul-05 20:25 301 30.0
2020-Jul-05 20:20 301 30.0
2020-Jul-05 20:16 302 30.0
2020-Jul-05 20:10 302 30.0
2020-Jul-05 20:05 301 30.6
2020-Jul-05 20:00 302 30.6
2020-Jul-05 19:55 298 30.6
2020-Jul-05 19:50 307 30.6
2020-Jul-05 19:45 307 30.6
2020-Jul-05 19:40 307 31.1
2020-Jul-05 19:35 300 31.1
2020-Jul-05 19:30 302 0 gusting 2 31.1
2020-Jul-05 19:25 306 31.1
2020-Jul-05 19:21 304 0 gusting 4 31.7
2020-Jul-05 19:15 251 31.7
2020-Jul-05 19:10 226 31.7
2020-Jul-05 19:05 296 31.7
2020-Jul-05 19:00 298 0 gusting 3 31.7
2020-Jul-05 18:55 331 31.7
2020-Jul-05 18:50 308 31.7
2020-Jul-05 18:45 310 0 gusting 5 31.1
2020-Jul-05 18:40 314 31.1
2020-Jul-05 18:35 357 31.1
2020-Jul-05 18:30 307 0 gusting 3 31.1
2020-Jul-05 18:25 060 0 gusting 2 31.1
2020-Jul-05 18:20 314 31.1
2020-Jul-05 18:15 303 31.1
2020-Jul-05 18:05 359 31.1
2020-Jul-05 18:00 315 2 gusting 6 30.6
2020-Jul-05 17:55 309 1 gusting 5 30.6
2020-Jul-05 17:50 199 0 gusting 2 30.6
2020-Jul-05 17:45 312 0 gusting 5 30.6
2020-Jul-05 17:40 304 30.6
2020-Jul-05 17:35 304 1 gusting 6 30.6
2020-Jul-05 17:30 248 0 gusting 6 30.6
2020-Jul-05 17:25 239 30.6
2020-Jul-05 17:20 314 1 gusting 4 30.6
2020-Jul-05 17:15 309 0 gusting 4 30.6
2020-Jul-05 17:10 315 1 gusting 4 30.6
2020-Jul-05 17:05 278 30.6
2020-Jul-05 17:00 259 0 gusting 3 30.6
2020-Jul-05 16:55 307 30.6
2020-Jul-05 16:50 297 30.6
2020-Jul-05 16:45 307 30.6
2020-Jul-05 16:41 321 30.6
2020-Jul-05 16:35 307 1 gusting 3 30.6
2020-Jul-05 16:30 308 30.6
2020-Jul-05 16:25 310 1 gusting 3 30.0
2020-Jul-05 16:20 328 30.0
2020-Jul-05 16:10 332 30.0
2020-Jul-05 16:05 311 1 gusting 4 30.0
2020-Jul-05 16:00 311 30.0
2020-Jul-05 15:55 153 30.0
2020-Jul-05 15:50 305 1 gusting 4 30.0
2020-Jul-05 15:45 312 0 gusting 6 30.0
2020-Jul-05 15:40 320 29.4
2020-Jul-05 15:25 081 29.4
2020-Jul-05 15:20 306 29.4
2020-Jul-05 15:10 299 1 gusting 4 29.4
2020-Jul-05 15:05 349 28.9
2020-Jul-05 14:55 307 0 gusting 4 28.9
2020-Jul-05 14:46 311 1 gusting 3 28.9
2020-Jul-05 14:41 222 28.9
2020-Jul-05 14:36 313 28.3
2020-Jul-05 14:32 308 1 gusting 4 28.3
2020-Jul-05 14:26 311 0 gusting 4 28.3
2020-Jul-05 14:20 215 28.3
2020-Jul-05 14:18 304 28.3
2020-Jul-05 14:11 311 0 gusting 3 28.3
2020-Jul-05 14:05 312 1 gusting 3 28.3
2020-Jul-05 14:01 309 27.8
2020-Jul-05 13:56 304 2 gusting 3 27.8
2020-Jul-05 13:50 308 0 gusting 3 27.8
2020-Jul-05 13:46 309 0 gusting 3 27.8
2020-Jul-05 13:41 317 0 gusting 3 27.8
2020-Jul-05 13:36 304 27.8
2020-Jul-05 13:31 305 0 gusting 2 27.8
2020-Jul-05 13:25 284 27.8
2020-Jul-05 13:20 331 0 gusting 2 27.2
2020-Jul-05 13:17 322 0 gusting 2 27.2
2020-Jul-05 13:10 322 0 gusting 2 26.7
2020-Jul-05 13:05 321 26.1
2020-Jul-05 13:00 310 1 gusting 5 25.6
2020-Jul-05 12:55 328 0 gusting 4 25.6
2020-Jul-05 12:50 318 25.6
2020-Jul-05 12:46 306 25.0
2020-Jul-05 12:40 298 25.0
2020-Jul-05 12:35 191 24.4
2020-Jul-05 12:30 244 24.4
2020-Jul-05 12:25 153 24.4
2020-Jul-05 12:20 149 23.9
2020-Jul-05 12:16 320 23.9
2020-Jul-05 12:10 168 23.3
2020-Jul-05 12:06 168 23.3
2020-Jul-05 12:01 168 22.8
2020-Jul-05 11:55 168 22.8
2020-Jul-05 11:50 125 22.8
2020-Jul-05 11:46 125 22.2
2020-Jul-05 11:40 125 22.2
2020-Jul-05 11:35 124 22.2
2020-Jul-05 11:30 125 21.7
2020-Jul-05 11:25 125 21.7
2020-Jul-05 11:20 125 21.7
2020-Jul-05 11:15 125 21.7
2020-Jul-05 11:10 125 21.7
2020-Jul-05 11:05 125 21.1
2020-Jul-05 11:00 124 21.1
2020-Jul-05 10:55 125 21.1
2020-Jul-05 10:50 125 21.1
2020-Jul-05 10:45 125 21.1
2020-Jul-05 10:40 125 21.1
2020-Jul-05 10:35 124 21.1
2020-Jul-05 10:31 125 21.1
2020-Jul-05 10:25 125 21.1
2020-Jul-05 10:20 124 21.1
2020-Jul-05 10:16 125 21.1
2020-Jul-05 10:10 125 21.1
2020-Jul-05 10:05 125 21.1
2020-Jul-05 10:00 125 21.1
2020-Jul-05 09:55 124 20.6
2020-Jul-05 09:50 125 20.6
2020-Jul-05 09:45 125 20.6
2020-Jul-05 09:40 124 20.6
2020-Jul-05 09:35 125 21.1
2020-Jul-05 09:25 125 20.6
2020-Jul-05 09:15 125 21.1
2020-Jul-05 09:10 125 21.1
2020-Jul-05 09:05 124 21.1
2020-Jul-05 08:55 125 21.1
2020-Jul-05 08:50 125 21.1
2020-Jul-05 08:40 125 21.1
2020-Jul-05 08:30 125 21.1
2020-Jul-05 08:25 125 21.1
2020-Jul-05 08:20 125 21.1
2020-Jul-05 08:10 124 21.1
2020-Jul-05 08:05 124 21.1
2020-Jul-05 07:55 125 21.1
2020-Jul-05 07:50 125 21.1
2020-Jul-05 07:40 125 21.1
2020-Jul-05 07:35 125 21.1
2020-Jul-05 07:30 125 21.1
2020-Jul-05 07:25 125 21.1
2020-Jul-05 07:20 125 21.1
2020-Jul-05 07:10 125 21.1
2020-Jul-05 07:05 125 21.1
2020-Jul-05 06:55 125 21.7
2020-Jul-05 06:50 125 21.7
2020-Jul-05 06:40 125 21.7
2020-Jul-05 06:35 125 21.7
2020-Jul-05 06:25 125 21.7
2020-Jul-05 06:20 125 21.7
2020-Jul-05 06:15 125 21.7
2020-Jul-05 06:10 125 21.7
2020-Jul-05 06:05 125 21.7
2020-Jul-05 06:00 125 21.7
2020-Jul-05 05:55 125 21.7
2020-Jul-05 05:50 125 21.7
2020-Jul-05 05:41 125 21.7
2020-Jul-05 05:36 124 21.7
2020-Jul-05 05:31 125 22.2
2020-Jul-05 05:26 125 22.2
2020-Jul-05 05:20 125 22.2
2020-Jul-05 05:17 124 22.2
2020-Jul-05 05:11 125 22.2
2020-Jul-05 05:06 125 22.2
2020-Jul-05 05:03 125 22.2
2020-Jul-05 04:55 125 22.2
2020-Jul-05 04:50 124 22.2
2020-Jul-05 04:46 125 22.2
2020-Jul-05 04:40 125 22.2
2020-Jul-05 04:36 125 22.2
2020-Jul-05 04:31 125 22.2
2020-Jul-05 04:26 125 22.2
2020-Jul-05 04:20 125 22.8
2020-Jul-05 04:16 125 22.8
2020-Jul-05 04:11 124 22.8
2020-Jul-05 04:05 125 22.8
2020-Jul-05 04:01 125 22.8
2020-Jul-05 03:55 125 22.8
2020-Jul-05 03:50 125 22.8
2020-Jul-05 03:46 124 22.8
2020-Jul-05 03:40 125 22.8
2020-Jul-05 03:35 125 22.8
2020-Jul-05 03:31 125 22.8
2020-Jul-05 03:26 125 22.8
2020-Jul-05 03:20 124 22.8
2020-Jul-05 03:16 125 22.8
2020-Jul-05 03:10 125 22.8
2020-Jul-05 03:05 125 22.8
2020-Jul-05 03:00 125 22.8
2020-Jul-05 02:55 125 23.3
2020-Jul-05 02:50 125 23.3
2020-Jul-05 02:46 125 23.3
2020-Jul-05 02:40 125 23.3
2020-Jul-05 02:35 125 23.3
2020-Jul-05 02:31 125 23.3
2020-Jul-05 02:25 124 23.3
2020-Jul-05 02:20 124 23.3
2020-Jul-05 02:17 125 23.3
2020-Jul-05 02:10 125 23.3
2020-Jul-05 02:05 125 23.3
2020-Jul-05 02:01 125 23.9
2020-Jul-05 01:55 124 23.9
2020-Jul-05 01:50 125 23.9
2020-Jul-05 01:46 124 23.9
2020-Jul-05 01:40 125 23.9
2020-Jul-05 01:35 125 23.9
2020-Jul-05 01:31 125 23.9
2020-Jul-05 01:25 125 24.4
2020-Jul-05 01:20 125 24.4
2020-Jul-05 01:05 125 24.4
2020-Jul-05 01:00 124 24.4
2020-Jul-05 00:56 125 25.0
2020-Jul-05 00:50 125 25.0
2020-Jul-05 00:46 125 25.0
2020-Jul-05 00:40 124 25.0
2020-Jul-05 00:35 125 25.6
2020-Jul-05 00:31 131 25.6
2020-Jul-05 00:25 131 25.6
2020-Jul-05 00:20 131 25.6
2020-Jul-05 00:15 131 26.1
2020-Jul-05 00:10 153 26.1
2020-Jul-05 00:05 153 26.1
2020-Jul-05 00:01 153 26.1
2020-Jul-04 23:55 136 26.7
2020-Jul-04 23:51 117 26.7
2020-Jul-04 23:46 117 26.7
2020-Jul-04 23:40 117 26.7
2020-Jul-04 23:35 117 27.2
2020-Jul-04 23:30 117 27.2
2020-Jul-04 23:26 117 27.2
2020-Jul-04 23:20 159 27.2
2020-Jul-04 23:16 144 27.8
2020-Jul-04 23:10 130 27.8
2020-Jul-04 23:05 128 27.8
2020-Jul-04 23:01 127 27.8
2020-Jul-04 22:55 150 27.8
2020-Jul-04 22:50 150 27.8
2020-Jul-04 22:45 100 27.8
2020-Jul-04 22:40 108 27.8
2020-Jul-04 22:35 108 27.8
2020-Jul-04 22:31 115 27.8
2020-Jul-04 22:25 115 27.8
2020-Jul-04 22:20 129 27.8
2020-Jul-04 22:16 155 28.3
2020-Jul-04 22:10 149 28.3
2020-Jul-04 22:05 100 28.3
2020-Jul-04 22:00 068 28.3
2020-Jul-04 21:55 091 28.3
2020-Jul-04 21:50 118 28.3
2020-Jul-04 21:47 035 28.3
2020-Jul-04 21:40 141 28.3
2020-Jul-04 21:36 140 28.3
2020-Jul-04 21:32 109 28.3
2020-Jul-04 21:25 219 1 gusting 4 28.3
2020-Jul-04 21:20 153 28.3
2020-Jul-04 21:16 165 28.3
2020-Jul-04 21:10 141 28.3
2020-Jul-04 21:05 110 28.3
2020-Jul-04 21:00 072 28.3
2020-Jul-04 20:55 074 0 gusting 2 28.3
2020-Jul-04 20:50 147 28.3
2020-Jul-04 20:45 146 28.9
2020-Jul-04 20:40 046 28.3
2020-Jul-04 20:35 143 28.3
2020-Jul-04 20:30 113 28.3
2020-Jul-04 20:25 203 28.3
2020-Jul-04 20:20 115 0 gusting 3 28.3
2020-Jul-04 20:17 063 0 gusting 5 28.3
2020-Jul-04 20:10 061 2 gusting 5 28.3
2020-Jul-04 20:05 056 28.9
2020-Jul-04 20:01 057 1 gusting 3 28.9
2020-Jul-04 19:55 065 28.9
2020-Jul-04 19:50 057 2 gusting 5 28.9
2020-Jul-04 19:46 352 28.9
2020-Jul-04 19:40 132 0 gusting 1 28.3
2020-Jul-04 19:35 056 0 gusting 1 28.3
2020-Jul-04 19:30 058 28.3
2020-Jul-04 19:25 062 0 gusting 2 28.3
2020-Jul-04 19:20 059 28.3
2020-Jul-04 19:15 165 28.3
2020-Jul-04 19:10 068 28.3
2020-Jul-04 19:05 071 0 gusting 2 28.3
2020-Jul-04 19:00 058 0 gusting 2 28.3
2020-Jul-04 18:55 049 0 gusting 2 28.3
2020-Jul-04 18:50 330 28.3
2020-Jul-04 18:45 328 28.3
2020-Jul-04 18:40 328 0 gusting 3 28.3
2020-Jul-04 18:35 063 1 gusting 3 28.3
2020-Jul-04 18:31 319 0 gusting 3 28.3
2020-Jul-04 18:26 055 0 gusting 3 28.3
2020-Jul-04 18:20 082 28.3
2020-Jul-04 18:15 153 0 gusting 3 27.8
2020-Jul-04 18:10 051 0 gusting 2 27.8
2020-Jul-04 18:05 225 0 gusting 3 27.8
2020-Jul-04 18:00 048 27.8
2020-Jul-04 17:55 066 0 gusting 4 27.8
2020-Jul-04 17:50 075 0 gusting 3 27.8
2020-Jul-04 17:45 086 27.8
2020-Jul-04 17:40 058 4 gusting 6 27.8
2020-Jul-04 17:35 133 27.8
2020-Jul-04 17:30 118 0 gusting 3 27.8
2020-Jul-04 17:25 049 0 gusting 4 27.8
2020-Jul-04 17:20 054 1 gusting 4 27.8
2020-Jul-04 17:15 052 1 gusting 4 27.8
2020-Jul-04 17:10 052 0 gusting 4 27.8
2020-Jul-04 17:05 055 0 gusting 5 27.8
2020-Jul-04 17:01 058 0 gusting 5 28.3
2020-Jul-04 16:55 059 28.3
2020-Jul-04 16:50 077 0 gusting 5 27.8
2020-Jul-04 16:45 103 1 gusting 3 27.8
2020-Jul-04 16:40 039 0 gusting 3 27.2
2020-Jul-04 16:35 046 1 gusting 3 27.2
2020-Jul-04 16:30 058 26.7
2020-Jul-04 16:25 063 2 gusting 5 26.7
2020-Jul-04 16:20 330 0 gusting 6 27.2
2020-Jul-04 16:15 045 2 gusting 6 26.7
2020-Jul-04 16:10 051 2 gusting 4 27.2
2020-Jul-04 16:05 063 1 gusting 3 26.7
2020-Jul-04 16:00 048 26.7
2020-Jul-04 15:55 052 0 gusting 4 26.7
2020-Jul-04 15:50 059 0 gusting 2 26.1
2020-Jul-04 15:45 002 25.6
2020-Jul-04 15:40 051 0 gusting 4 25.6
2020-Jul-04 15:31 050 1 gusting 4 26.1
2020-Jul-04 15:26 053 1 26.1
2020-Jul-04 15:20 065 26.1
2020-Jul-04 15:15 056 3 gusting 5 25.6
2020-Jul-04 15:10 055 1 gusting 6 25.6
2020-Jul-04 15:05 054 3 gusting 6 25.6
2020-Jul-04 14:55 065 2 gusting 6 25.6
2020-Jul-04 14:50 069 0 gusting 3 25.6
2020-Jul-04 14:45 055 1 gusting 3 25.6
2020-Jul-04 14:40 060 0 gusting 3 25.6
2020-Jul-04 14:35 065 0 gusting 1 25.6
2020-Jul-04 14:25 064 25.6
2020-Jul-04 14:20 056 1 gusting 4 25.6
2020-Jul-04 14:15 174 25.6
2020-Jul-04 14:10 058 0 gusting 3 25.0
2020-Jul-04 14:05 057 1 gusting 3 25.0
2020-Jul-04 13:55 056 25.0
2020-Jul-04 13:50 065 0 gusting 4 25.0
2020-Jul-04 13:45 062 1 gusting 4 25.6
2020-Jul-04 13:36 056 1 gusting 6 25.0
2020-Jul-04 13:21 213 24.4
2020-Jul-04 13:17 056 1 gusting 6 24.4
2020-Jul-04 13:11 058 3 gusting 6 24.4
2020-Jul-04 13:05 051 0 gusting 5 24.4
2020-Jul-04 13:00 064 1 gusting 5 24.4
2020-Jul-04 12:55 058 2 gusting 5 24.4
2020-Jul-04 12:50 051 1 gusting 4 24.4
2020-Jul-04 12:45 219 0 gusting 4 24.4
2020-Jul-04 12:40 056 1 gusting 4 24.4
2020-Jul-04 12:35 163 0 gusting 4 24.4
2020-Jul-04 12:25 069 2 gusting 5 23.9
2020-Jul-04 12:20 065 1 gusting 7 23.9
2020-Jul-04 12:10 046 1 gusting 6 23.9
2020-Jul-04 12:05 061 0 gusting 6 23.9
2020-Jul-04 12:00 048 1 gusting 5 23.9
2020-Jul-04 11:55 061 2 gusting 5 23.9
2020-Jul-04 11:50 052 3 gusting 5 23.9
2020-Jul-04 11:45 056 1 gusting 5 23.3
2020-Jul-04 11:40 059 0 gusting 3 23.3
2020-Jul-04 11:35 058 1 gusting 4 23.3
2020-Jul-04 11:30 057 2 gusting 5 23.3
2020-Jul-04 11:25 058 2 gusting 4 23.3
2020-Jul-04 11:20 066 1 gusting 4 23.3
2020-Jul-04 11:10 056 1 gusting 3 23.3
2020-Jul-04 11:06 158 23.3
2020-Jul-04 11:01 071 0 gusting 3 23.3
2020-Jul-04 10:55 049 1 gusting 4 23.3
2020-Jul-04 10:50 058 1 gusting 3 22.8
2020-Jul-04 10:45 062 1 gusting 3 22.8
2020-Jul-04 10:40 058 0 gusting 3 22.8
2020-Jul-04 10:35 060 0 gusting 3 22.8
2020-Jul-04 10:30 059 0 gusting 4 22.8
2020-Jul-04 10:20 050 1 gusting 3 22.8
2020-Jul-04 10:15 058 0 gusting 3 22.8
2020-Jul-04 10:10 057 22.8
2020-Jul-04 10:05 061 1 gusting 3 22.8
2020-Jul-04 10:00 084 22.8
2020-Jul-04 09:51 081 22.8
2020-Jul-04 09:46 120 22.8
2020-Jul-04 09:41 164 22.8
2020-Jul-04 09:35 071 22.8
2020-Jul-04 09:31 051 22.8
2020-Jul-04 09:26 051 22.8
2020-Jul-04 09:21 051 0 gusting 1 22.8
2020-Jul-04 09:16 055 22.8
2020-Jul-04 09:06 059 22.8
2020-Jul-04 09:01 059 22.8
2020-Jul-04 08:55 067 0 gusting 2 22.8
2020-Jul-04 08:50 039 22.8
2020-Jul-04 08:47 062 0 gusting 2 22.8
2020-Jul-04 08:40 059 1 gusting 3 22.8
2020-Jul-04 08:35 054 1 gusting 3 22.8
2020-Jul-04 08:31 091 1 gusting 2 22.8
2020-Jul-04 08:25 050 22.8
2020-Jul-04 08:21 028 22.8
2020-Jul-04 08:17 022 22.8
2020-Jul-04 08:10 334 22.8
2020-Jul-04 08:05 334 22.8
2020-Jul-04 08:02 334 22.8
2020-Jul-04 07:55 334 22.8
2020-Jul-04 07:50 334 22.8
2020-Jul-04 07:46 334 22.8
2020-Jul-04 07:40 334 22.8
2020-Jul-04 07:35 334 23.3
2020-Jul-04 07:31 334 23.3
2020-Jul-04 07:26 334 23.3
2020-Jul-04 07:20 334 23.3
2020-Jul-04 07:17 333 23.3
2020-Jul-04 07:10 334 23.3
2020-Jul-04 07:05 334 23.3
2020-Jul-04 07:01 334 23.3
2020-Jul-04 06:56 334 23.3
2020-Jul-04 06:51 334 23.3
2020-Jul-04 06:46 340 23.3
2020-Jul-04 06:40 041 23.9
2020-Jul-04 06:35 041 23.9
2020-Jul-04 06:31 068 23.9
2020-Jul-04 06:26 068 23.9
2020-Jul-04 06:22 068 23.9
2020-Jul-04 06:16 068 23.9
2020-Jul-04 06:10 068 23.9
2020-Jul-04 06:05 068 23.9
2020-Jul-04 06:02 068 23.9